sat.trackr.live / text

‹ back to catalog

STARLINK-3890

NORAD 52455 · 2022-049E

PAYLOAD ACTIVE UNKNOWN

§ Identity

Operator
Country
US
Launch date
2022-05-06
Launch site
AFETR
Launch vehicle
Mass (kg)
RCS (m²)

Purposes: comms

External: N2YO · Heavens-Above · Gunter

§ Orbital elements

Epoch: 2026-05-25T03:25:45.836832Z

Period
95.44 min
Inclination
53.2153°
Eccentricity
0.0001521
Mean motion
15.08840554 rev/d
Perigee alt
538.7 km
Apogee alt
540.8 km
Semi-major
6,917.9 km
B*
-1.2492e-5
RAAN
85.9092°
Arg perigee
87.6248°
Mean anomaly
272.4919°
Rev number
22,365

§ Raw data

STARLINK-38901 52455U 22049E   26145.14289163 -.00000487  00000+0 -12492-4 0  99922 52455  53.2153  85.9092 0001521  87.6248 272.4919 15.08840554223651

JSON: /api/v1/satellites/52455 · /tle

For live sub-satellite position, see the globe view (requires WebGL).

§ Visibility from observer

Set your observer location to see the next 7 days of passes ≥ 10°. The values pass through the URL so the page stays shareable.

No JS? Fill the form by hand. The geolocation button needs JavaScript.